Location: Sungai Balbiwan
(2.7167°N, 113.6000°E)
Time: 08:34:04
(UTC+00:00)

Daily predictions for brighter satellites

Satellite Brightness Start Highest point End
(mag) Time Altitude Azimuth Time Altitude Azimuth Time Altitude Azimuth
Meteor 1-26 Rocket 4.4 12:05:12 10° S 12:11:02 75° W 12:16:41 10° N
ASC 2 Rocket 4.1 12:04:32 10° NW 12:12:38 58° NNE 12:13:53 49° ENE
Cosmos 2278 Rocket 3.6 12:07:33 10° SW 12:12:46 39° WNW 12:17:58 10° N
CSL-04 Debris 4.1 12:11:45 49° SSE 12:13:17 89° ENE 12:18:42 10° NNW
CSL-04 Rocket 3.5 12:19:38 69° S 12:20:18 84° WSW 12:25:36 10° NNW
Ariane 42L Rocket 4.2 12:14:58 10° W 12:21:13 69° N 12:25:35 38° ENE
ARIANE 5 R/B 4.3 12:29:06 10° W 12:29:50 14° WSW 12:29:50 14° WSW
Cosmos 1386 Rocket 4.4 12:27:05 10° N 12:32:44 74° NNE 12:32:44 74° NNE
SL-4 R/B 3.6 12:29:43 10° NNW 12:32:28 35° NNW 12:32:28 35° NNW
ATLAS 5 CENTAUR R/B 3.9 12:30:41 10° N 12:34:26 27° NNE 12:34:26 27° NNE
SJ 16-02 3.0 12:40:41 32° W 12:40:46 32° WNW 12:44:42 10° NNW
BREEZE-M DEB (TANK) 4.0 12:39:38 10° NW 12:54:22 63° WSW 12:54:22 63° WSW
H-II Stage 2 4.0 12:57:56 10° WNW 13:04:38 36° WNW 13:04:38 36° WNW
Ariane H10+ 4.4 19:06:55 51° SE 19:06:55 51° SE 19:12:42 10° ESE
USA 215 4.4 19:12:45 10° ESE 19:18:38 37° NE 19:24:30 10° NNW
Cosmos 2219 Rocket 3.9 19:32:14 28° ENE 19:32:14 28° ENE 19:35:43 10° NE
Cosmos 2360 Rocket 4.5 19:36:34 16° N 19:36:34 16° N 19:37:35 10° N
Cosmos 2263 Rocket 4.4 19:29:39 10° NNE 19:33:54 22° ENE 19:38:10 10° ESE
COSMOS 2428 4.4 19:36:25 29° E 19:36:25 29° E 19:40:42 10° NE
CZ-3B Rocket 3.9 19:44:50 46° SSE 19:45:36 47° SSE 20:15:47 10° ENE
CZ-3B Rocket 3.9 19:44:50 46° SSE 19:45:36 47° SSE 20:15:48 10° ENE
CZ-3B Rocket 3.9 19:44:50 46° SSE 19:45:37 47° SSE 20:15:48 10° ENE
CZ-3B Rocket 3.9 19:44:49 46° SSE 19:45:37 47° SSE 20:15:48 10° ENE
CZ-3B Rocket 3.9 19:44:50 46° SSE 19:45:37 47° SSE 20:15:47 10° ENE
ATLAS 3B R/B 2.9 20:02:12 54° SE 20:03:04 58° ESE 20:09:25 10° NE
Hubble Space Telescope 3.1 20:05:52 21° NNE 20:05:52 21° NNE 20:07:24 10° NE
USA 234 3.3 20:01:02 10° NE 20:07:32 71° SE 20:08:27 63° S
BLOCK DM-SL R/B 4.0 19:13:31 10° W 20:09:35 75° S 20:14:31 10° E
Cosmos 2034 Rocket 4.0 20:06:13 10° N 20:12:26 77° E 20:14:56 39° SSE
Cosmos 2322 4.3 20:17:26 45° NNW 20:17:26 45° NNW 20:21:34 10° N
Chandra Rocket (1) 4.0 20:16:50 28° SSE 20:16:50 28° SSE 20:20:06 10° ESE
Cosmos 2058 Rocket 4.3 20:13:13 10° N 20:15:55 36° N 20:15:55 36° N
Milstar 3 3.0 20:18:36 57° SW 20:19:07 58° SSW 20:28:44 10° SE
Cosmos 1758 Rocket 4.0 20:23:47 59° ESE 20:23:59 60° E 20:28:20 10° NNE
Cosmos 2227 4.4 20:18:35 10° N 20:24:08 67° ENE 20:29:42 10° SSE
CZ-2C R/B 2.9 20:27:26 24° NE 20:27:26 24° NE 20:29:38 10° E
ALOS 2.6 20:23:22 10° N 20:27:01 53° NNW 20:27:01 53° NNW
FENGYUN 3A 3.6 20:22:59 10° N 20:28:09 65° WNW 20:28:09 65° WNW
Cosmos 1484 Rocket 3.6 20:25:16 10° NNE 20:27:57 44° NNE 20:27:57 44° NNE
Cosmos 1992 Rocket 3.8 20:29:04 78° SW 20:29:21 83° WNW 20:34:32 10° N
Cosmos 2333 Rocket 2.9 20:34:28 37° NW 20:34:28 37° NW 20:38:55 10° N
deb Ariane 4.1 20:35:41 26° NE 20:35:41 26° NE 20:37:42 10° ENE
BREEZE-M TANK 4.5 20:19:35 10° NW 20:35:55 61° NE 20:40:26 10° ESE
Cosmos 2237 Rocket 3.4 20:36:00 10° S 20:41:15 39° ESE 20:46:28 10° NE
deb Ariane 2.9 20:41:39 55° NNE 20:41:39 55° NNE 20:44:18 10° ENE
NOSS 0 Rocket 4.1 20:39:07 20° S 20:43:24 69° ESE 20:49:30 10° NNE
SJ-6F 4.4 20:46:30 10° N 20:50:30 56° WNW 20:50:43 55° W
ARIANE 5 DEB (SYLDA) 3.5 20:49:48 43° SW 20:50:53 56° S 20:54:32 10° E
Ariane H10-3 2.4 20:50:18 40° W 20:51:56 83° N 21:07:05 10° E
CZ-2C R/B 4.5 20:50:45 10° NW 20:51:53 14° NW 20:51:53 14° NW
Aureole 1 Rocket 3.8 20:49:40 10° N 20:54:41 80° ENE 21:01:22 10° SSE
Milstar 3 Cent rocket 4.2 20:48:50 19° SSW 20:55:51 35° SSE 21:01:49 10° E
METEOR-M 4.4 20:54:10 10° N 20:59:13 44° WNW 21:01:25 29° SW
USA 215 3.8 20:55:37 10° S 21:01:23 34° SW 21:07:09 10° WNW
Aureole 3 4.2 20:58:47 10° NNE 21:01:32 35° E 21:04:22 10° SSE
Envisat 4.4 21:03:24 10° NE 21:08:04 37° ESE 21:12:43 10° SSE
Ariane 44LP R/B 4.4 21:06:02 29° W 21:08:17 75° S 21:20:16 10° E
Ariane H10 4.1 21:11:38 13° S 21:11:38 13° S 21:12:28 10° SSE
Cosmos 192 4.2 21:07:35 12° SSW 21:12:15 80° WNW 21:17:12 10° N
Cosmos 2219 Rocket 3.7 21:14:00 17° WNW 21:14:24 17° WNW 21:17:55 10° NW
ARIANE 3 DEB 4.0 21:14:40 21° SW 21:17:24 33° S 21:20:29 10° ESE
Cosmos 2263 Rocket 3.1 21:12:55 10° NW 21:17:33 26° WSW 21:22:12 10° SSW
Cosmos 1812 Rocket 3.4 21:13:55 10° N 21:18:14 83° W 21:22:33 10° S
Cosmos 1844 Rocket 4.3 21:13:44 10° N 21:18:56 38° ENE 21:24:08 10° SE
Nadezhda 4 Rocket 4.0 21:12:46 10° S 21:19:08 85° W 21:25:27 10° N
COSMOS 2428 4.0 21:18:30 18° W 21:19:51 20° WNW 21:23:50 10° NNW
ADEOS 3.6 21:15:28 10° N 21:20:36 65° WNW 21:25:47 10° SSW
ISS -1.9 21:18:54 10° NNW 21:21:59 33° NE 21:25:04 10° ESE
ARIANE 5 DEB (SYLDA) 2.9 21:20:34 21° WSW 21:23:32 58° S 21:28:50 10° ESE
Centaur D AC-29 2.5 21:23:06 10° NW 21:26:59 77° NNE 21:44:47 10° ESE
Centaur D AC-25 2.4 21:23:58 10° WNW 21:27:31 82° SSW 21:34:43 10° ESE
Cosmos 1892 3.5 21:26:37 15° SW 21:29:06 29° W 21:32:23 10° NNW
Cosmos 2098 Rocket 4.1 21:23:35 10° S 21:29:16 83° E 21:36:10 10° N
CZ-4C R/B 3.3 21:29:11 10° SSE 21:32:27 63° E 21:35:36 10° N
IRAS Rocket 4.5 21:29:57 10° S 21:35:14 47° WSW 21:40:33 10° NNW
Ariane H10 2.8 21:29:35 11° W 21:38:34 49° SSW 21:41:38 10° ESE
ATLAS 3B CENTAUR R/B 4.0 21:39:07 10° S 21:39:57 10° S 21:40:43 10° SSE
H-2A R/B 2.8 21:36:37 10° N 21:40:21 56° W 21:44:08 10° SSW
Cosmos 1953 Rocket 4.4 21:36:52 10° SSW 21:40:41 29° W 21:44:29 10° NNW
Cosmos 1408 3.6 21:37:57 10° SW 21:40:55 24° W 21:43:50 10° NNW
ARIANE 5 DEB (SYLDA) 4.3 21:38:50 11° WSW 21:41:45 29° S 21:45:54 10° ESE
Cosmos 1980 4.3 21:38:06 10° SW 21:43:16 38° WNW 21:48:27 10° N
Ariane H10+ 2.9 21:45:54 10° WSW 21:48:57 55° S 22:01:21 10° ESE
H-2A R/B 3.0 21:46:55 10° SSE 21:51:12 55° ENE 21:55:32 10° N
Cosmos 968 Rocket 4.2 21:46:15 10° N 21:51:14 59° ENE 21:56:15 10° SSE
ATLAS 3B R/B 4.3 21:50:57 10° W 21:53:31 12° WNW 21:56:06 10° NW
COSMO-SKYMED 1 3.6 21:50:27 10° SSE 21:54:40 53° ENE 21:58:53 10° N
Landsat 5 3.9 21:51:52 10° S 21:56:11 47° WSW 22:00:25 10° NNW
SL-16 R/B 2.8 21:50:48 10° S 21:56:26 65° ESE 22:02:03 10° NNE
ATLAS V CENTAUR R/B 3.3 21:53:40 10° WSW 22:03:34 78° SSE 22:06:11 10° ENE
